[[{"header":{"parameterUnit":"m.s-1","parameterCategory":1,"la1":30.2991,"la2":30.254,"lo1":-89.0895,"lo2":-89.0444,"dy":0.0017,"dx":0.0017,"nx":28,"ny":28,"refTime":"2024-04-12T09:00:00:Z","depth":0,"parameterNumber":2,"parameterNumberName":"U-component_of_WINDS"},"data":[0,0,0,0,0,0,0,0,0,0,0,0,0,0,0,0,0,0,0,0,0,0,0,0,0,0,0,0,0,0,0,0,0,0,0,0,0,0,0,0,0,0,0,0,0,0,0,0,0,0,0,0,0,0,0,0,0,0,-0.9361,-0.9362,0,-0.9388,-0.9388,-0.9389,-0.9352,-0.935,-0.9349,-0.9348,-0.9376,-0.9378,-0.938,0,0,0,0,0,0,0,0,0,0,0,0,0,-0.9279,-0.928,-0.9361,-0.9362,-0.9362,-0.9388,-0.9388,-0.9389,-0.9352,-0.935,-0.9349,-0.9347,-0.9375,-0.9377,-0.938,0,0,0,0,0,0,0,0,0,0,0,0,0,-0.9311,-0.9281,-0.9361,-0.9347,-0.9346,-0.9388,-0.9388,-0.9389,-0.9352,-0.935,-0.9348,-0.9347,-0.9374,-0.9377,-0.938,-0.9438,0,0,-0.9389,-0.939,0,0,0,0,0,0,0,0,-0.9309,-0.9314,-0.9349,-0.9348,-0.9347,-0.9365,-0.9369,-0.9405,-0.9353,-0.935,-0.9348,-0.9346,-0.9374,-0.9377,-0.9386,-0.9439,-0.944,-0.9389,-0.9391,-0.9392,-0.9393,0,0,0,0,0,0,0,-0.9307,-0.9313,-0.9372,-0.9349,-0.9348,-0.9339,-0.9341,-0.9376,-0.9373,-0.935,-0.9347,-0.9351,-0.9373,-0.9383,-0.9386,-0.9441,-0.9389,-0.9392,-0.9394,-0.9395,-0.9543,-0.9545,0,0,0,0,0,0,-0.9307,-0.9311,-0.9371,-0.9373,-0.9323,-0.9342,-0.9345,-0.9361,-0.9372,-0.9372,-0.9353,-0.9349,-0.9379,-0.9383,-0.9387,-0.9456,-0.9392,-0.9395,-0.9397,-0.9541,-0.9543,-0.9546,0,0,0,0,0,0,-0.9305,-0.9312,-0.937,-0.9341,-0.9348,-0.9346,-0.9364,-0.9362,-0.9373,-0.9374,-0.9373,-0.9364,-0.9378,-0.9383,-0.9426,-0.9457,-0.9397,-0.9399,-0.9538,-0.9542,-0.9545,-0.9594,0,0,0,0,0,0,-0.9303,-0.9312,-0.9334,-0.9342,-0.935,-0.9408,-0.9366,-0.9364,-0.9378,-0.9374,-0.9384,-0.9384,-0.9376,-0.9421,-0.9428,-0.946,-0.9401,-0.9536,-0.954,-0.9544,-0.959,-0.9599,-0.9606,0,0,0,0,0,-0.93,-0.9347,-0.9335,-0.9343,-0.9377,-0.941,-0.9414,-0.9404,-0.9381,-0.9403,-0.9403,-0.9384,-0.9452,-0.9426,-0.9434,-0.9466,-0.9534,-0.9539,-0.9543,-0.9586,-0.9597,-0.9606,0,0,0,0,0,0,-0.9343,-0.9348,-0.9335,-0.9386,-0.9398,-0.9404,-0.9432,-0.9416,-0.9435,-0.9431,-0.9417,-0.942,-0.9466,-0.947,-0.9441,-0.9523,-0.9489,-0.9495,-0.9519,-0.9529,-0.9537,-0.9536,-0.9404,0,0,0,0,0,-0.9358,-0.9384,-0.9387,-0.9432,-0.9439,-0.9434,-0.9448,-0.9439,-0.9451,-0.9456,-0.946,-0.9472,-0.9496,-0.9513,-0.9535,-0.959,-0.9592,-0.9616,-0.9624,-0.9631,-0.9637,-0.9667,-0.9678,-0.9562,-0.9562,-0.9562,0,0,-0.939,-0.9396,-0.9414,-0.9441,-0.9449,-0.9477,-0.9439,-0.947,-0.949,-0.9461,-0.9502,-0.9505,-0.9518,-0.9567,-0.9589,-0.9572,-0.9669,-0.9637,-0.9642,-0.9645,-0.9673,-0.9684,-0.9694,-0.9565,-0.9564,-0.9564,0,0,-0.9463,-0.947,-0.9508,-0.9517,-0.953,-0.9527,-0.9536,-0.9544,-0.9545,-0.9585,-0.9564,-0.9588,-0.963,-0.964,-0.9651,-0.9727,-0.971,-0.9734,-0.9778,-0.9807,-0.9816,-0.9824,-0.9853,-0.9863,-0.974,-0.974,-0.974,0,-0.9502,-0.9543,-0.953,-0.9563,-0.9575,-0.9549,-0.9588,-0.9597,-0.9617,-0.9626,-0.9607,-0.9658,-0.9665,-0.9717,-0.9735,-0.9744,-0.9755,-0.9734,-0.9816,-0.9824,-0.9831,-0.9858,-0.9868,-0.9743,-0.9743,-0.9743,-0.9742,0,-0.959,-0.9619,-0.9648,-0.9668,-0.9683,-0.9719,-0.9712,-0.9729,-0.9718,-0.9717,-0.9758,-0.9765,-0.9789,-0.98,-0.979,-0.985,-0.9839,-0.9818,-0.9784,-0.9846,-0.987,-0.988,-0.9747,-0.9746,-0.9745,-0.9745,0,0,-0.9692,-0.9703,-0.9715,-0.9723,-0.9735,-0.9757,-0.9791,-0.9814,-0.983,-0.9843,-0.9872,-0.9908,-0.9888,-0.99,-0.9891,-0.9916,-0.9977,-0.9892,-0.9892,-0.9908,-1.0044,-1.0061,-1.0073,-0.9965,-0.9967,-0.9968,-1.0044,0,-0.9766,-0.9826,-0.9815,-0.9873,-0.9899,-0.9874,-0.9904,-0.9915,-0.9914,-0.9937,-0.9935,-0.9961,-0.9933,-0.994,-0.9964,-0.9965,-1.0004,-0.9959,-0.9992,-0.9994,-0.9991,-1.0086,-1.0104,-1.0175,-1.0053,-1.0055,-1.0056,0,-0.9861,-0.9878,-0.9939,-0.9947,-0.9957,-0.9984,-1.0004,-1.0026,-1.0037,-1.0035,-1.0048,-1.0034,-1.0068,-1.0032,-1.0079,-1.0048,-1.0061,-1.0063,-1.0065,-1.0069,-1.003,-1.0094,-1.0198,-1.0209,-1.0071,-1.007,-1.0069,0,-0.9931,-0.9969,-1.0011,-1.0019,-1.0028,-1.0048,-1.0053,-1.0062,-1.0076,-1.0093,-1.0103,-1.0123,-1.0135,-1.0151,-1.0143,-1.0117,-1.0192,-1.0155,-1.0191,-1.0192,-1.021,-1.0209,-1.0318,-1.0215,-1.0215,-1.0215,-1.0215,0,-1.0015,-1.0054,-1.0042,-1.0068,-1.011,-1.0097,-1.0139,-1.0141,-1.0149,-1.0175,-1.0154,-1.0178,-1.0165,-1.0189,-1.0182,-1.0222,-1.0227,-1.0227,-1.0225,-1.023,-1.023,-1.0239,-1.0234,-1.0218,-1.0217,-1.0217,-1.0216,0,-1.0101,-1.0095,-1.0139,-1.0144,-1.0146,-1.0178,-1.0182,-1.0206,-1.0203,-1.0236,-1.0243,-1.0239,-1.0265,-1.0258,-1.0286,-1.0282,-1.0333,-1.0324,-1.033,-1.0328,-1.0365,-1.0362,-1.0485,-1.0501,-1.0387,-1.0388,-1.0389,0,-1.0157,-1.0186,-1.0194,-1.021,-1.0216,-1.0242,-1.0256,-1.0243,-1.0259,-1.0274,-1.0296,-1.0321,-1.034,-1.0383,-1.0383,-1.0404,-1.0397,-1.0438,-1.04,-1.0404,-1.0399,-1.0398,-1.0401,-1.0446,-1.0448,-1.0449,-1.045,0,-1.0256,-1.0251,-1.0273,-1.0293,-1.0311,-1.0326,-1.034,-1.0354,-1.0342,-1.0361,-1.0388,-1.0403,-1.0432,-1.0456,-1.0476,-1.0481,-1.0464,-1.0461,-1.0471,-1.0477,-1.0479,-1.048,-1.0352,-1.0459,-1.0458,-1.0457,-1.0457,-1.0457,-1.0329,-1.0354,-1.0364,-1.0388,-1.0397,-1.041,-1.0433,-1.0433,-1.0455,-1.0478,-1.0469,-1.05,-1.0509,-1.0534,-1.0541,-1.0565,-1.0549,-1.0563,-1.0567,-1.0571,-1.0576,-1.0474,-1.0569,-1.0568,-1.0568,-1.0568,-1.0568,0,-1.0428,-1.0433,-1.0456,-1.0475,-1.0495,-1.0476,-1.049,-1.0507,-1.0535,-1.0545,-1.0564,-1.0595,-1.0619,-1.062,-1.0642,-1.0661,-1.0654,-1.0667,-1.0666,-1.0668,-1.0589,-1.0579,-1.0673,-1.0673,-1.0673,-1.0673,-1.0673,-1.0673,-1.0482,-1.0523,-1.052,-1.0565,-1.0569,-1.0599,-1.0609,-1.0621,-1.0629,-1.0665,-1.0684,-1.0684,-1.0691,-1.0713,-1.0734,-1.0734,-1.0744,-1.0761,-1.0757,-1.0684,-1.0673,-1.0664,-1.0654,-1.0762,-1.0763,-1.0835,-1.0835,-1.0836]},{"header":{"parameterUnit":"m.s-1","parameterCategory":1,"la1":30.2991,"la2":30.254,"lo1":-89.0895,"lo2":-89.0444,"dy":0.0017,"dx":0.0017,"nx":28,"ny":28,"refTime":"2024-04-12T09:00:00:Z","depth":0,"parameterNumber":3,"parameterNumberName":"V-component_of_WINDS"},"data":[0,0,0,0,0,0,0,0,0,0,0,0,0,0,0,0,0,0,0,0,0,0,0,0,0,0,0,0,0,0,0,0,0,0,0,0,0,0,0,0,0,0,0,0,0,0,0,0,0,0,0,0,0,0,0,0,0,0,-2.7333,-2.7335,0,-2.7477,-2.7478,-2.748,-2.7482,-2.748,-2.7479,-2.7477,-2.7622,-2.7627,-2.7633,0,0,0,0,0,0,0,0,0,0,0,0,0,-2.706,-2.7065,-2.7333,-2.7335,-2.7337,-2.7476,-2.7478,-2.748,-2.7483,-2.748,-2.7478,-2.7476,-2.762,-2.7627,-2.7633,0,0,0,0,0,0,0,0,0,0,0,0,0,-2.7189,-2.7067,-2.7333,-2.7355,-2.7358,-2.7476,-2.7478,-2.7481,-2.7483,-2.748,-2.7478,-2.7475,-2.7618,-2.7626,-2.7634,-2.7739,0,0,-2.7659,-2.7663,0,0,0,0,0,0,0,0,-2.7181,-2.7199,-2.735,-2.7353,-2.7357,-2.7459,-2.7435,-2.7567,-2.7484,-2.7436,-2.7477,-2.7474,-2.757,-2.7582,-2.7614,-2.7746,-2.7752,-2.766,-2.7665,-2.7669,-2.7671,0,0,0,0,0,0,0,-2.7172,-2.7192,-2.739,-2.7352,-2.7357,-2.7357,-2.7372,-2.746,-2.7516,-2.744,-2.744,-2.7457,-2.7571,-2.7606,-2.7618,-2.7754,-2.766,-2.7667,-2.7672,-2.7676,-2.798,-2.7983,0,0,0,0,0,0,-2.7159,-2.7185,-2.7385,-2.7394,-2.7261,-2.7364,-2.7381,-2.7429,-2.7515,-2.7525,-2.7459,-2.7457,-2.7594,-2.7608,-2.7623,-2.7753,-2.7669,-2.7676,-2.7681,-2.7977,-2.7981,-2.7984,0,0,0,0,0,0,-2.7153,-2.7177,-2.738,-2.729,-2.7316,-2.7372,-2.7425,-2.7433,-2.7469,-2.753,-2.754,-2.7485,-2.7592,-2.7611,-2.7711,-2.7758,-2.768,-2.7688,-2.7973,-2.7978,-2.7982,-2.8012,0,0,0,0,0,0,-2.7146,-2.7175,-2.7216,-2.7291,-2.732,-2.7465,-2.7428,-2.7438,-2.7483,-2.7481,-2.7557,-2.7567,-2.7591,-2.7698,-2.7719,-2.7768,-2.7694,-2.7969,-2.7975,-2.7981,-2.8007,-2.8017,-2.8025,0,0,0,0,0,-2.7136,-2.7218,-2.7218,-2.7242,-2.7373,-2.7468,-2.7485,-2.7512,-2.7487,-2.7528,-2.7568,-2.7564,-2.7749,-2.7708,-2.7732,-2.7783,-2.7967,-2.7974,-2.7981,-2.8003,-2.8015,-2.8025,0,0,0,0,0,0,-2.7146,-2.7228,-2.7229,-2.7338,-2.7396,-2.7468,-2.7521,-2.7524,-2.759,-2.7586,-2.7616,-2.7633,-2.7732,-2.7768,-2.7721,-2.789,-2.7855,-2.7867,-2.7864,-2.7876,-2.7885,-2.7874,-2.7701,0,0,0,0,0,-2.7161,-2.7232,-2.7299,-2.7389,-2.7418,-2.7465,-2.7507,-2.7523,-2.7585,-2.7609,-2.7656,-2.7715,-2.7787,-2.7833,-2.7902,-2.8012,-2.8029,-2.8059,-2.8068,-2.8076,-2.8086,-2.8147,-2.8162,-2.8007,-2.8007,-2.8007,0,0,-2.7192,-2.7246,-2.7289,-2.7392,-2.7439,-2.7512,-2.7485,-2.7563,-2.7617,-2.7621,-2.7718,-2.7754,-2.7822,-2.7928,-2.7976,-2.796,-2.8132,-2.8084,-2.809,-2.8096,-2.8156,-2.8171,-2.8184,-2.8012,-2.8011,-2.801,0,0,-2.7287,-2.7334,-2.7414,-2.7462,-2.7534,-2.7565,-2.7584,-2.7657,-2.7681,-2.7779,-2.7784,-2.7848,-2.797,-2.8019,-2.806,-2.8174,-2.8174,-2.8196,-2.8244,-2.8304,-2.8316,-2.8327,-2.8368,-2.8383,-2.8205,-2.8205,-2.8205,0,-2.7316,-2.7427,-2.7455,-2.7534,-2.7579,-2.7586,-2.7668,-2.7713,-2.7803,-2.7835,-2.7815,-2.797,-2.8016,-2.8133,-2.8161,-2.8194,-2.8217,-2.8187,-2.8312,-2.8323,-2.8334,-2.8374,-2.8389,-2.8208,-2.8207,-2.8207,-2.8207,0,-2.746,-2.7537,-2.7593,-2.7681,-2.7733,-2.7812,-2.7852,-2.7901,-2.7913,-2.7946,-2.8046,-2.8102,-2.8183,-2.8212,-2.8223,-2.8331,-2.8319,-2.8306,-2.8271,-2.8351,-2.8389,-2.8404,-2.8211,-2.821,-2.8209,-2.8209,0,0,-2.7565,-2.7669,-2.7689,-2.773,-2.781,-2.7869,-2.7949,-2.8029,-2.8071,-2.8133,-2.8201,-2.8305,-2.8294,-2.834,-2.8357,-2.841,-2.8497,-2.839,-2.8392,-2.8409,-2.862,-2.863,-2.8648,-2.8498,-2.8501,-2.8503,-2.8615,0,-2.7669,-2.7812,-2.784,-2.7964,-2.8035,-2.8043,-2.8113,-2.817,-2.8203,-2.8267,-2.8303,-2.8377,-2.8356,-2.8384,-2.8436,-2.8476,-2.854,-2.8468,-2.8561,-2.8564,-2.8545,-2.8667,-2.8678,-2.8781,-2.863,-2.8632,-2.8634,0,-2.7809,-2.7876,-2.8007,-2.8079,-2.811,-2.8172,-2.8249,-2.8311,-2.8375,-2.8395,-2.8448,-2.8459,-2.8543,-2.8504,-2.8619,-2.8569,-2.8609,-2.8634,-2.8639,-2.8649,-2.8604,-2.8682,-2.8815,-2.883,-2.8658,-2.8656,-2.8654,0,-2.7873,-2.7996,-2.8091,-2.8125,-2.8211,-2.8255,-2.8293,-2.8355,-2.8401,-2.8468,-2.8498,-2.8573,-2.8614,-2.8672,-2.8703,-2.8672,-2.8817,-2.878,-2.8836,-2.8835,-2.8866,-2.8864,-2.9008,-2.8891,-2.8891,-2.889,-2.889,0,-2.7987,-2.8067,-2.8121,-2.8179,-2.827,-2.8301,-2.839,-2.8427,-2.8482,-2.8548,-2.8559,-2.862,-2.8658,-2.8725,-2.875,-2.8842,-2.886,-2.8879,-2.8885,-2.8879,-2.8876,-2.8905,-2.8899,-2.8895,-2.8894,-2.8893,-2.8892,0,-2.8074,-2.8113,-2.8217,-2.829,-2.8311,-2.8374,-2.8437,-2.8494,-2.8526,-2.861,-2.8631,-2.8682,-2.8762,-2.8799,-2.8897,-2.8914,-2.9019,-2.9019,-2.8997,-2.9,-2.9054,-2.9048,-2.9222,-2.9247,-2.9112,-2.9113,-2.9115,0,-2.8144,-2.8206,-2.8286,-2.8331,-2.8371,-2.8443,-2.8491,-2.8524,-2.8574,-2.8653,-2.87,-2.878,-2.8846,-2.8972,-2.9018,-2.9093,-2.9096,-2.9152,-2.9107,-2.9099,-2.9098,-2.9094,-2.9101,-2.916,-2.9161,-2.9162,-2.9163,0,-2.8264,-2.8281,-2.835,-2.8427,-2.8484,-2.8545,-2.8606,-2.8642,-2.8685,-2.874,-2.8822,-2.8873,-2.8973,-2.9053,-2.9131,-2.9169,-2.9174,-2.9177,-2.9194,-2.9188,-2.9173,-2.9183,-2.902,-2.9173,-2.9172,-2.9171,-2.917,-2.917,-2.8346,-2.8402,-2.8467,-2.8544,-2.8593,-2.865,-2.8707,-2.8748,-2.8817,-2.8902,-2.8917,-2.9004,-2.9068,-2.9173,-2.9215,-2.9283,-2.927,-2.9295,-2.9301,-2.9307,-2.931,-2.9162,-2.9297,-2.9297,-2.9297,-2.9297,-2.9297,0,-2.8468,-2.851,-2.8581,-2.8666,-2.8726,-2.8726,-2.8793,-2.8843,-2.892,-2.8979,-2.9044,-2.9138,-2.9215,-2.9268,-2.9346,-2.9391,-2.9395,-2.941,-2.9407,-2.9416,-2.9317,-2.9295,-2.9406,-2.9406,-2.9406,-2.9406,-2.9406,-2.9406,-2.8538,-2.8633,-2.8658,-2.8778,-2.882,-2.8906,-2.8944,-2.8996,-2.9044,-2.9149,-2.9214,-2.9247,-2.9304,-2.9387,-2.9458,-2.9471,-2.95,-2.9516,-2.9529,-2.9435,-2.9423,-2.9412,-2.9392,-2.9521,-2.9522,-2.9623,-2.9624,-2.9624]}]]